Salinas, CA

6:40 PM PDT on August 30, 2016 (GMT -0700)
Salinas Municipal

Weather History for KSNS - April, 2013

Change the Weather History Date:

Tuesday, April 30, 2013

  Actual Average Record
Temperature  
Mean Temperature 60 °F 58 °F  
Max Temperature 69 °F 68 °F 93 °F (2014)
Min Temperature 50 °F 48 °F 32 °F (1933)
Degree Days  
Heating Degree Days 5 7  
Month to date heating degree days 213 254  
Since 1 July heating degree days 2248 2389  
Cooling Degree Days 0 0  
Month to date cooling degree days 1 6  
Year to date cooling degree days 1 7  
Growing Degree Days 10 (Base 50)    
Moisture  
Dew Point 47 °F    
Average Humidity 67    
Maximum Humidity 86    
Minimum Humidity 47    
Precipitation  
Precipitation 0.00 in 0.02 in 0.87 in (1955)
Month to date precipitation 0.27 0.93  
Year to date precipitation 2.28 8.28  
Since 1 July precipitation 8.92  
Sea Level Pressure  
Sea Level Pressure 29.85 in    
Wind  
Wind Speed 10 mph (WNW)    
Max Wind Speed 18 mph    
Max Gust Speed 36 mph    
Visibility 6 miles    
Events      
T = Trace of Precipitation, MM = Missing Value Source: NWS Daily Summary

Daily Weather History Graph

Daily Weather History Graph

Search for Another Location

Airport or City:

Trip Planner

Search our weather history database for the weather conditions in past years. The results will help you decide how hot, cold, wet, or windy it might be!

Date:

Astronomy

Apr. 30, 2013 Rise Set
Actual Time 6:13 AM PDT 7:54 PM PDT
Civil Twilight 5:45 AM PDT 8:22 PM PDT
Nautical Twilight 5:12 AM PDT 8:55 PM PDT
Astronomical Twilight 4:37 AM PDT 9:31 PM PDT
Moon 12:20 AM PDT (4/30) 10:49 AM PDT (4/30)
Length of Visible Light 14h 36m
Length of Day
13h 40m
Waning Gibbous, 69% of the Moon is Illuminated
Apr 30
Waning Gibbous
May 2
Last Quarter
May 9
New
May 17
First Quarter
May 24
Full

Hourly Weather History & Observations

Time (PDT) Temp. Dew Point Humidity Pressure Visibility Wind Dir Wind Speed Gust Speed Precip Events Conditions
12:53 AM 54.0 °F 46.9 °F 77% 29.85 in 8.0 mi WNW 9.2 mph - N/A   Clear
1:53 AM 53.1 °F 46.9 °F 80% 29.85 in 7.0 mi West 10.4 mph - N/A   Clear
2:53 AM 52.0 °F 46.0 °F 80% 29.85 in 7.0 mi West 12.7 mph - N/A   Scattered Clouds
3:00 AM 51.8 °F 46.4 °F 82% 29.82 in 7.0 mi West 8.1 mph - N/A   Mostly Cloudy
3:12 AM 51.8 °F 46.4 °F 82% 29.82 in 7.0 mi West 8.1 mph - N/A   Scattered Clouds
3:45 AM 51.8 °F 46.4 °F 82% 29.82 in 7.0 mi West 8.1 mph - N/A   Mostly Cloudy
3:53 AM 51.1 °F 46.0 °F 83% 29.85 in 7.0 mi West 8.1 mph - N/A   Mostly Cloudy
4:12 AM 51.8 °F 46.4 °F 82% 29.82 in 7.0 mi WNW 8.1 mph - N/A   Scattered Clouds
4:53 AM 51.1 °F 46.0 °F 83% 29.84 in 6.0 mi NW 6.9 mph - N/A   Haze
5:53 AM 50.0 °F 46.0 °F 86% 29.85 in 6.0 mi NW 4.6 mph - N/A   Scattered Clouds
6:53 AM 51.1 °F 46.9 °F 86% 29.86 in 4.0 mi NW 4.6 mph - N/A   Clear
7:53 AM 53.1 °F 46.9 °F 80% 29.88 in 5.0 mi WNW 6.9 mph - N/A   Haze
8:14 AM 53.6 °F 48.2 °F 82% 29.86 in 5.0 mi WNW 11.5 mph - N/A   Scattered Clouds
8:18 AM 53.6 °F 48.2 °F 82% 29.86 in 5.0 mi West 11.5 mph - N/A   Mostly Cloudy
8:53 AM 53.1 °F 48.9 °F 86% 29.88 in 5.0 mi WNW 8.1 mph - N/A   Overcast
9:18 AM 55.4 °F 50.0 °F 82% 29.85 in 5.0 mi WNW 5.8 mph - N/A   Haze
9:53 AM 59.0 °F 50.0 °F 72% 29.87 in 6.0 mi NW 8.1 mph - N/A   Haze
10:53 AM 63.0 °F 50.0 °F 63% 29.88 in 6.0 mi West 11.5 mph - N/A   Haze
11:53 AM 63.0 °F 50.0 °F 63% 29.88 in 6.0 mi WNW 11.5 mph - N/A   Haze
12:53 PM 69.1 °F 48.9 °F 49% 29.86 in 7.0 mi West 10.4 mph - N/A   Clear
1:53 PM 66.0 °F 48.0 °F 52% 29.86 in 7.0 mi West 17.3 mph 23.0 mph N/A   Clear
2:53 PM 66.0 °F 48.0 °F 52% 29.86 in 7.0 mi WNW 13.8 mph - N/A   Clear
3:53 PM 63.0 °F 46.0 °F 54% 29.86 in 7.0 mi West 15.0 mph - N/A   Clear
4:53 PM 63.0 °F 45.0 °F 52% 29.85 in 7.0 mi West 11.5 mph - N/A   Clear
6:53 PM 62.1 °F 45.0 °F 53% 29.84 in 7.0 mi NW 11.5 mph - N/A   Clear
7:53 PM 59.0 °F 45.0 °F 60% 29.84 in 6.0 mi NW 10.4 mph - N/A   Haze
8:53 PM 57.0 °F 45.0 °F 64% 29.86 in 7.0 mi NW 8.1 mph - N/A   Clear
9:53 PM 55.9 °F 45.0 °F 67% 29.88 in 7.0 mi West 3.5 mph - N/A   Clear